Regional Weather Roundup
Issued by NWS

Home | Current Version | Previous Version | Graphics & Text | Print | Product List | Glossary On
Versions: 1 2 3 4 5 6 7 8 9 10 11 12 13 14 15 16 17 18 19 20 21 22 23 24 25 26 27 28 29 30 31 32 33 34 35 36 37 38 39 40 41 42 43 44 45 46 47 48 49 50
000
ASUS45 KABQ 250201
RWRNM
NEW MEXICO REGIONAL WEATHER ROUNDUP
NATIONAL WEATHER SERVICE ALBUQUERQUE NM
800 PM MDT SAT JUN 24 2017

NOTE: "FAIR" MEANS FEW OR NO CLOUDS BELOW 12,000 FEET AGL WITH NO
       SIGNIFICANT WEATHER OR OBSTRUCTIONS TO VISION.

      THIS PRODUCT IS RELEASED AS TWO VERSIONS.  ONE VERSION NEAR
      THE TOP OF THE HOUR CONTAINING PRELIMINARY DATA FROM ALBUQUERQUE
      AND OTHER STATIONS.  A FINAL VERSION WITH ADDITIONAL DATA IS
      ISSUED ABOUT 10 MINUTES AFTER THE HOUR.

NMZ501-503-504-510>518-250300-
NORTHWEST PLATEAU/NORTHCENTRAL MOUNTAINS

CITY           SKY/WX    TMP DP  RH WIND       PRES   REMARKS
FARMINGTON     FAIR      91  17   6 W14       30.06R
LOS ALAMOS     FAIR      72  49  44 S9        30.31R
SANTA FE       FAIR      76  53  44 S13       30.23R
TAOS           FAIR      73  45  35 E23G39    30.28R
ANGEL FIRE     CLOUDY    61  47  60 E13G20    30.45R

$$
NMZ402-403-502-505>509-250300-
WESTCENTRAL MOUNTAINS/SOUTHWEST MOUNTAINS

CITY           SKY/WX    TMP DP  RH WIND       PRES   REMARKS
GALLUP         FAIR      90  20   7 N7        30.16R
GRANTS         FAIR      80  42  26 S10       30.23R
SILVER CITY    MOCLDY    70  54  56 N15G23    30.23R

$$
NMZ407-409-411-412-250300-
SOUTHERN DESERTS

CITY           SKY/WX    TMP DP  RH WIND       PRES   REMARKS
DEMING         TSTM      73  57  57 S8        30.20R
LAS CRUCES     FAIR      78  48  35 N25G41    30.20R
ALAMOGORDO     FAIR      73  54  49 N16G24    30.23R
T OR C         LGT RAIN  67  58  72 S17       30.19F

$$
NMZ519>523-250300-
CENTRAL VALLEYS/CENTRAL HIGHLANDS

CITY           SKY/WX    TMP DP  RH WIND       PRES   REMARKS
ALBUQUERQUE    MOCLDY    79  48  33 S31G40    30.18R
DOUBLE EAGLE   PTCLDY    79  46  31 S23G41    30.20R
MORIARTY ARPT  MOCLDY    74  55  50 S21G28    30.25F
CLINES CORNERS FAIR      68  50  52 S22G29    30.31F
BELEN          FAIR      75  48  38 S26G32    30.16R
SOCORRO        FAIR      71  52  50 SW22G28   30.19R

$$
NMZ524>526-539-540-250300-
SOUTHCENTRAL MOUNTAINS

CITY           SKY/WX    TMP DP  RH WIND       PRES   REMARKS
RUIDOSO        FAIR      68  54  60 SE13      30.35R

$$
NMZ527>531-250300-
NORTHEAST HIGHLANDS/NORTHEAST PLAINS

CITY           SKY/WX    TMP DP  RH WIND       PRES   REMARKS
LAS VEGAS      FAIR      65  52  62 S17       30.34R
RATON          FAIR      63  52  67 S8        30.32R
CLAYTON        CLOUDY    66  56  70 SE14      30.28R

$$
NMZ532>537-250300-
EASTCENTRAL PLAINS

CITY           SKY/WX    TMP DP  RH WIND       PRES   REMARKS
SANTA ROSA     CLOUDY    75  55  50 SE13      30.20S
TUCUMCARI      CLOUDY    75  58  55 E13       30.19R
CANNON AFB     NOT AVBL
CLOVIS AIRPORT CLOUDY    72  60  66 E14       30.23R

$$
NMZ028-029-538-250300-
SOUTHEAST PLAINS

CITY           SKY/WX    TMP DP  RH WIND       PRES   REMARKS
ROSWELL        FAIR      83  56  39 S10       30.13S
ARTESIA        FAIR      84  59  42 S9        30.13S
CARLSBAD       FAIR      84  59  42 SE9       30.09S
HOBBS          FAIR      77  57  50 E6        30.17R


$$




USA.gov is the U.S. government's official web portal to all federal, state and local government web resources and services.